[[{"header":{"parameterUnit":"m.s-1","parameterCategory":1,"la1":30.2991,"la2":30.254,"lo1":-89.0895,"lo2":-89.0444,"dy":0.0017,"dx":0.0017,"nx":28,"ny":28,"refTime":"2025-04-18T09:00:00:Z","depth":0,"parameterNumber":2,"parameterNumberName":"U-component_of_WINDS"},"data":[0,0,0,0,0,0,0,0,0,0,0,0,0,0,0,0,0,0,0,0,0,0,0,0,0,0,0,0,0,0,0,0,0,0,0,0,0,0,0,0,0,0,0,0,0,0,0,0,0,0,0,0,0,0,0,0,0,0,-5.0799,-5.0801,0,-5.0923,-5.0924,-5.0926,-5.0899,-5.0897,-5.0895,-5.0893,-5.1017,-5.1022,-5.1028,0,0,0,0,0,0,0,0,0,0,0,0,0,-5.0538,-5.0543,-5.0799,-5.0801,-5.0802,-5.0923,-5.0924,-5.0926,-5.09,-5.0897,-5.0894,-5.0892,-5.1015,-5.1022,-5.1028,0,0,0,0,0,0,0,0,0,0,0,0,0,-5.0656,-5.0545,-5.0799,-5.0804,-5.0805,-5.0922,-5.0925,-5.0927,-5.09,-5.0897,-5.0893,-5.089,-5.1013,-5.1021,-5.1029,-5.1149,0,0,-5.1054,-5.1058,0,0,0,0,0,0,0,0,-5.0649,-5.0665,-5.0801,-5.0804,-5.0806,-5.0892,-5.0878,-5.1001,-5.0901,-5.0864,-5.0893,-5.0889,-5.0978,-5.0989,-5.102,-5.1154,-5.116,-5.1055,-5.106,-5.1063,-5.1066,0,0,0,0,0,0,0,-5.0641,-5.066,-5.0848,-5.0803,-5.0806,-5.0799,-5.0812,-5.0901,-5.0939,-5.0867,-5.0866,-5.0881,-5.0979,-5.1012,-5.1023,-5.1162,-5.1055,-5.1062,-5.1067,-5.107,-5.1399,-5.1403,0,0,0,0,0,0,-5.0631,-5.0653,-5.0844,-5.0852,-5.0717,-5.0807,-5.0821,-5.0868,-5.0938,-5.0945,-5.0884,-5.0879,-5.1,-5.1013,-5.1027,-5.117,-5.1063,-5.1071,-5.1076,-5.1396,-5.14,-5.1404,0,0,0,0,0,0,-5.0626,-5.0648,-5.0839,-5.0752,-5.0776,-5.0815,-5.0868,-5.0872,-5.0905,-5.095,-5.0957,-5.0911,-5.0998,-5.1015,-5.1118,-5.1174,-5.1075,-5.1082,-5.1391,-5.1397,-5.1402,-5.1457,0,0,0,0,0,0,-5.0618,-5.0647,-5.0693,-5.0753,-5.0781,-5.0929,-5.0871,-5.0877,-5.092,-5.0915,-5.0977,-5.0984,-5.0996,-5.1106,-5.1127,-5.1183,-5.1089,-5.1386,-5.1394,-5.14,-5.1451,-5.1464,-5.1476,0,0,0,0,0,-5.0609,-5.0703,-5.0695,-5.0718,-5.0839,-5.0933,-5.0948,-5.096,-5.0924,-5.097,-5.1,-5.0982,-5.1165,-5.1117,-5.114,-5.12,-5.1383,-5.1392,-5.14,-5.1445,-5.1462,-5.1476,0,0,0,0,0,0,-5.0646,-5.0711,-5.0703,-5.0819,-5.0871,-5.0928,-5.0986,-5.0978,-5.104,-5.1032,-5.1045,-5.1059,-5.1163,-5.1192,-5.1138,-5.1318,-5.1269,-5.1282,-5.1295,-5.1311,-5.1324,-5.1313,-5.1095,0,0,0,0,0,-5.0669,-5.074,-5.0792,-5.089,-5.0916,-5.0947,-5.0988,-5.0994,-5.1047,-5.1068,-5.1105,-5.1156,-5.1225,-5.127,-5.1337,-5.1456,-5.1468,-5.1508,-5.1521,-5.1531,-5.1541,-5.1605,-5.1623,-5.1433,-5.1433,-5.1432,0,0,-5.0714,-5.0758,-5.0802,-5.0898,-5.0939,-5.1011,-5.0965,-5.1044,-5.1098,-5.108,-5.1179,-5.1208,-5.1267,-5.1378,-5.1429,-5.1405,-5.1597,-5.1542,-5.155,-5.1555,-5.1616,-5.1634,-5.165,-5.1439,-5.1438,-5.1437,0,0,-5.0834,-5.0876,-5.0961,-5.1003,-5.1065,-5.1085,-5.1106,-5.1165,-5.1183,-5.1284,-5.1271,-5.1336,-5.1455,-5.1496,-5.1533,-5.1671,-5.1657,-5.1692,-5.1757,-5.1819,-5.1834,-5.1847,-5.1894,-5.1911,-5.1703,-5.1703,-5.1704,0,-5.0883,-5.0992,-5.1006,-5.1086,-5.1128,-5.1117,-5.1202,-5.1242,-5.1323,-5.1351,-5.1324,-5.1473,-5.1512,-5.1632,-5.1666,-5.1697,-5.172,-5.1683,-5.1831,-5.1844,-5.1857,-5.1901,-5.1919,-5.1707,-5.1707,-5.1706,-5.1706,0,-5.1048,-5.1124,-5.1186,-5.1264,-5.1313,-5.1396,-5.1421,-5.147,-5.1471,-5.1494,-5.1596,-5.1643,-5.1717,-5.1747,-5.1749,-5.1868,-5.1851,-5.1828,-5.1777,-5.1878,-5.192,-5.1938,-5.1712,-5.1711,-5.171,-5.1709,0,0,-5.1192,-5.1278,-5.13,-5.1335,-5.1404,-5.1463,-5.1545,-5.1619,-5.1659,-5.1716,-5.1784,-5.1886,-5.1864,-5.1906,-5.1913,-5.1968,-5.2072,-5.1938,-5.1939,-5.1959,-5.2203,-5.2218,-5.2238,-5.2064,-5.2068,-5.207,-5.2198,0,-5.1316,-5.1461,-5.1476,-5.1606,-5.1675,-5.1667,-5.1738,-5.1788,-5.1812,-5.1874,-5.1901,-5.1971,-5.1939,-5.1964,-5.2018,-5.2048,-5.2121,-5.2039,-5.2126,-5.2129,-5.2108,-5.2261,-5.2277,-5.2395,-5.2214,-5.2217,-5.2219,0,-5.148,-5.1541,-5.1678,-5.1736,-5.1766,-5.183,-5.1899,-5.196,-5.2015,-5.2029,-5.2077,-5.2077,-5.216,-5.211,-5.2224,-5.2169,-5.2206,-5.2226,-5.223,-5.2236,-5.2178,-5.2268,-5.2433,-5.2449,-5.2246,-5.2244,-5.2242,0,-5.1568,-5.1686,-5.1782,-5.1813,-5.1885,-5.1929,-5.1961,-5.2014,-5.2057,-5.2118,-5.2146,-5.2215,-5.2253,-5.2306,-5.2325,-5.2286,-5.2438,-5.2389,-5.245,-5.245,-5.248,-5.2477,-5.265,-5.2509,-5.2508,-5.2508,-5.2508,0,-5.1704,-5.1787,-5.1823,-5.1882,-5.1975,-5.1992,-5.2083,-5.2113,-5.216,-5.2224,-5.2221,-5.2281,-5.2303,-5.2367,-5.2382,-5.2474,-5.2492,-5.2504,-5.2506,-5.2502,-5.25,-5.2524,-5.2515,-5.2513,-5.2512,-5.2511,-5.251,0,-5.1817,-5.1845,-5.1949,-5.2009,-5.2026,-5.2091,-5.2142,-5.2198,-5.2223,-5.2304,-5.2324,-5.2361,-5.2436,-5.246,-5.2551,-5.2561,-5.2667,-5.2664,-5.2648,-5.2648,-5.2706,-5.27,-5.2898,-5.2924,-5.2768,-5.277,-5.2771,0,-5.19,-5.1964,-5.2031,-5.2074,-5.2107,-5.2177,-5.2221,-5.2241,-5.2287,-5.2356,-5.2404,-5.2479,-5.2539,-5.2659,-5.2693,-5.2762,-5.2759,-5.2824,-5.2769,-5.2763,-5.2757,-5.2751,-5.2757,-5.2833,-5.2835,-5.2836,-5.2837,0,-5.2044,-5.2054,-5.2119,-5.2189,-5.2242,-5.2298,-5.2352,-5.2387,-5.2415,-5.2467,-5.2544,-5.2591,-5.2684,-5.2757,-5.2827,-5.2859,-5.2852,-5.2855,-5.2872,-5.2867,-5.2854,-5.2859,-5.2673,-5.2849,-5.2848,-5.2847,-5.2846,-5.2846,-5.2143,-5.2198,-5.2254,-5.2326,-5.2369,-5.242,-5.2475,-5.2507,-5.2572,-5.2649,-5.2657,-5.2739,-5.2793,-5.2888,-5.2923,-5.2987,-5.2969,-5.2994,-5.3,-5.3005,-5.3009,-5.2847,-5.3,-5.3,-5.3,-5.3,-5.2999,0,-5.2284,-5.232,-5.2386,-5.2462,-5.2518,-5.2509,-5.2568,-5.2616,-5.2688,-5.274,-5.28,-5.2888,-5.2959,-5.3,-5.3071,-5.3114,-5.3113,-5.3132,-5.3127,-5.3134,-5.3022,-5.2999,-5.3132,-5.3132,-5.3132,-5.3132,-5.3132,-5.3132,-5.2364,-5.2457,-5.2475,-5.2589,-5.2625,-5.2705,-5.274,-5.2786,-5.2827,-5.2926,-5.2985,-5.3012,-5.3059,-5.3134,-5.3199,-5.3209,-5.3234,-5.3255,-5.3263,-5.3156,-5.3143,-5.3129,-5.3107,-5.3261,-5.3261,-5.3369,-5.337,-5.3371]},{"header":{"parameterUnit":"m.s-1","parameterCategory":1,"la1":30.2991,"la2":30.254,"lo1":-89.0895,"lo2":-89.0444,"dy":0.0017,"dx":0.0017,"nx":28,"ny":28,"refTime":"2025-04-18T09:00:00:Z","depth":0,"parameterNumber":3,"parameterNumberName":"V-component_of_WINDS"},"data":[0,0,0,0,0,0,0,0,0,0,0,0,0,0,0,0,0,0,0,0,0,0,0,0,0,0,0,0,0,0,0,0,0,0,0,0,0,0,0,0,0,0,0,0,0,0,0,0,0,0,0,0,0,0,0,0,0,0,3.7668,3.7668,0,3.7686,3.7686,3.7686,3.7648,3.7647,3.7645,3.7644,3.766,3.7661,3.7663,0,0,0,0,0,0,0,0,0,0,0,0,0,3.7598,3.7599,3.7668,3.7668,3.7668,3.7686,3.7686,3.7686,3.7648,3.7647,3.7645,3.7644,3.7659,3.7661,3.7663,0,0,0,0,0,0,0,0,0,0,0,0,0,3.7623,3.76,3.7668,3.7651,3.765,3.7686,3.7686,3.7686,3.7648,3.7646,3.7645,3.7643,3.7659,3.7661,3.7663,3.7715,0,0,3.7671,3.7672,0,0,0,0,0,0,0,0,3.7622,3.7626,3.7653,3.7652,3.7651,3.7663,3.7667,3.7696,3.7649,3.7649,3.7644,3.7642,3.7662,3.7664,3.7671,3.7716,3.7716,3.7671,3.7672,3.7673,3.7674,0,0,0,0,0,0,0,3.762,3.7625,3.7675,3.7654,3.7652,3.7642,3.7644,3.7672,3.7666,3.7649,3.7646,3.7649,3.7661,3.7669,3.7672,3.7717,3.7671,3.7673,3.7674,3.7675,3.7805,3.7807,0,0,0,0,0,0,3.7621,3.7624,3.7674,3.7675,3.7632,3.7645,3.7647,3.7661,3.7665,3.7664,3.765,3.7647,3.7666,3.7669,3.7672,3.7734,3.7673,3.7675,3.7677,3.7803,3.7806,3.7808,0,0,0,0,0,0,3.7619,3.7626,3.7673,3.7649,3.7654,3.7648,3.7664,3.7662,3.767,3.7667,3.7665,3.766,3.7665,3.7669,3.7705,3.7734,3.7676,3.7679,3.7801,3.7804,3.7807,3.7857,0,0,0,0,0,0,3.7618,3.7625,3.7645,3.765,3.7656,3.7707,3.7666,3.7664,3.7675,3.7671,3.7675,3.7674,3.7664,3.7702,3.7707,3.7736,3.768,3.7798,3.7802,3.7806,3.7853,3.7861,3.7869,0,0,0,0,0,3.7615,3.7658,3.7646,3.7653,3.7681,3.7709,3.7712,3.77,3.7677,3.7697,3.7695,3.7674,3.773,3.7706,3.7712,3.7741,3.7796,3.7801,3.7806,3.7849,3.786,3.7868,0,0,0,0,0,0,3.7655,3.7658,3.7645,3.7691,3.77,3.7702,3.7727,3.7711,3.7726,3.7721,3.7705,3.7706,3.7746,3.7747,3.7721,3.7792,3.7759,3.7765,3.779,3.78,3.7808,3.7807,3.7682,0,0,0,0,0,3.767,3.7693,3.7694,3.7734,3.7739,3.7732,3.7744,3.7734,3.7743,3.7746,3.7746,3.7755,3.7774,3.7787,3.7804,3.7853,3.7853,3.7876,3.7884,3.7891,3.7896,3.7923,3.7933,3.7823,3.7823,3.7823,0,0,3.7699,3.7703,3.7719,3.7742,3.7748,3.7772,3.7736,3.7762,3.778,3.775,3.7785,3.7785,3.7793,3.7837,3.7855,3.7839,3.7927,3.7896,3.7902,3.7904,3.7928,3.7939,3.7948,3.7826,3.7826,3.7825,0,0,3.7765,3.7771,3.7805,3.7813,3.7823,3.7818,3.7827,3.7832,3.7832,3.7867,3.7845,3.7865,3.7899,3.7906,3.7914,3.7985,3.7966,3.7991,3.8033,3.8059,3.8067,3.8075,3.8101,3.811,3.7996,3.7996,3.7996,0,3.78,3.7837,3.7824,3.7854,3.7865,3.784,3.7875,3.7882,3.7897,3.7905,3.7886,3.7929,3.7932,3.7977,3.7995,3.8002,3.8011,3.799,3.8067,3.8075,3.8082,3.8106,3.8116,3.7999,3.7999,3.7999,3.7998,0,3.788,3.7906,3.7932,3.7949,3.7963,3.7995,3.7987,3.8002,3.7992,3.7989,3.8026,3.8029,3.8048,3.8058,3.8047,3.8101,3.8091,3.807,3.8036,3.8095,3.8118,3.8127,3.8003,3.8002,3.8002,3.8001,0,0,3.797,3.7982,3.7992,3.8,3.801,3.803,3.806,3.808,3.8094,3.8105,3.8131,3.8161,3.8142,3.8151,3.8141,3.8164,3.8221,3.814,3.814,3.8155,3.8282,3.8298,3.8309,3.8209,3.821,3.8212,3.8282,0,3.8037,3.8091,3.8082,3.8135,3.8159,3.8136,3.8163,3.8172,3.8171,3.819,3.8188,3.821,3.8184,3.8189,3.8211,3.8209,3.8246,3.8204,3.8232,3.8233,3.8231,3.8321,3.8338,3.8403,3.829,3.8292,3.8293,0,3.8121,3.8138,3.8194,3.8202,3.8211,3.8236,3.8254,3.8273,3.8283,3.828,3.8292,3.8277,3.8308,3.8274,3.8316,3.8288,3.8299,3.83,3.8302,3.8304,3.8267,3.8326,3.8424,3.8434,3.8307,3.8306,3.8305,0,3.8183,3.8219,3.8258,3.8265,3.8275,3.8293,3.8298,3.8306,3.8319,3.8334,3.8342,3.836,3.837,3.8384,3.8375,3.8352,3.8419,3.8384,3.8417,3.8418,3.8433,3.8432,3.8534,3.8439,3.8439,3.8439,3.8439,0,3.8258,3.8293,3.8286,3.831,3.8348,3.8337,3.8375,3.8377,3.8385,3.8408,3.8389,3.8411,3.8398,3.8419,3.8412,3.8448,3.8452,3.8451,3.8449,3.8453,3.8453,3.846,3.8455,3.8441,3.8441,3.844,3.844,0,3.8334,3.833,3.8371,3.8378,3.838,3.8409,3.8414,3.8436,3.8434,3.8464,3.847,3.8466,3.849,3.8483,3.8507,3.8503,3.8549,3.854,3.8546,3.8544,3.8578,3.8575,3.8688,3.8703,3.8598,3.8599,3.86,0,3.8382,3.8409,3.842,3.8435,3.8442,3.8466,3.8479,3.8469,3.8484,3.8498,3.8519,3.8541,3.8558,3.8597,3.8596,3.8615,3.8608,3.8646,3.861,3.8614,3.8609,3.8608,3.8611,3.8653,3.8654,3.8655,3.8656,0,3.8469,3.8466,3.8487,3.8509,3.8526,3.8541,3.8555,3.8568,3.8559,3.8577,3.8602,3.8615,3.8642,3.8664,3.8682,3.8686,3.867,3.8667,3.8676,3.8681,3.8684,3.8683,3.8566,3.8665,3.8664,3.8663,3.8663,3.8662,3.8533,3.8556,3.8568,3.8593,3.8602,3.8616,3.8637,3.8639,3.866,3.8682,3.8674,3.8703,3.8713,3.8735,3.8742,3.8764,3.8749,3.8761,3.8765,3.8768,3.8773,3.868,3.8767,3.8766,3.8766,3.8766,3.8766,0,3.8619,3.8626,3.8649,3.867,3.8689,3.8674,3.8688,3.8705,3.8731,3.8742,3.8761,3.879,3.8812,3.8813,3.8834,3.8851,3.8844,3.8857,3.8856,3.8857,3.8785,3.8775,3.8862,3.8862,3.8862,3.8862,3.8862,3.8862,3.8667,3.8706,3.8705,3.8749,3.8755,3.8785,3.8794,3.8807,3.8816,3.885,3.8869,3.887,3.8877,3.8898,3.8918,3.8918,3.8926,3.8942,3.8939,3.8871,3.8862,3.8853,3.8844,3.8944,3.8944,3.901,3.901,3.9011]}]]